Location: Treviso
(45.6669°N, 12.2430°E)
Time: 09:39:30
(UTC+02:00)

CUBESAT XI-V - Pass Details

Date: 02 May 2019
Orbit: 668 x 694 km, 98.0° (Epoch: 23 May)

Event Time Altitude Azimuth Distance (km) Brightness Sun altitude
Exits shadow 03:43:04 26° 166° (SSE) 1,336 ? -19.7°
Maximum altitude 03:45:43 89° 245° (WSW) 690 ? -19.4°
Drops below altitude 10° 03:50:24 10° 347° (NNW) 2,129 ? -18.9°
Sets 03:52:38 0° 347° (NNW) 3,045 ? -18.6°
